DW9110 Weather Reports


time (UTC)temp
C
wind
direction
speed
KPH
gust
KPH
rain 1hr
cm
rain 24hr
cm
rain mn
cm
humidity
%
barometer
mb
20260505011611 25 267 11.3 20.9 0.00 0.00 0.00 54 1001.6
20260505010055 25 252 8.0 20.9 0.00 0.00 0.00 54 1001.2
20260505004605 25 232 4.8 12.9 0.00 0.00 0.00 54 1001.0
20260505003057 25 235 6.4 16.1 0.00 0.00 0.00 53 1000.9
20260505001613 26 225 8.0 20.9 0.00 0.00 0.00 51 1001.0
20260505000107 26 267 8.0 22.5 0.00 0.00 0.00 51 1001.1
20260504234556 26 229 11.3 32.2 0.00 0.00 0.00 49 1001.5
20260504233109 26 251 9.7 35.4 0.00 0.00 0.00 49 1001.0
20260504231550 27 245 17.7 32.2 0.00 0.00 0.00 48 1001.5
20260504230050 27 273 11.3 25.7 0.00 0.00 0.00 47 1001.2
20260504224549 27 223 11.3 32.2 0.00 0.00 0.00 47 1001.1
20260504223049 27 246 12.9 33.8 0.00 0.00 0.00 47 1001.5
20260504221548 27 232 11.3 32.2 0.00 0.00 0.00 48 1001.4
20260504220048 27 259 14.5 29.0 0.00 0.00 0.00 47 1001.5
20260504214547 27 240 12.9 37.0 0.00 0.00 0.00 47 1001.5
20260504213048 27 194 11.3 35.4 0.00 0.00 0.00 48 1001.5
20260504211545 27 232 9.7 33.8 0.00 0.00 0.00 49 1001.6
20260504210043 27 216 17.7 37.0 0.00 0.00 0.00 48 1001.7
20260504204541 27 180 12.9 32.2 0.00 0.00 0.00 48 1001.9
20260504203046 27 243 9.7 22.5 0.00 0.00 0.00 47 1002.1
20260504201537 26 244 9.7 25.7 0.00 0.00 0.00 49 1002.3
20260504200035 26 231 11.3 32.2 0.00 0.00 0.00 47 1002.3
20260504194534 26 249 12.9 24.1 0.00 0.00 0.00 48 1002.6
20260504193031 25 242 12.9 30.6 0.00 0.00 0.00 48 1002.4
20260504191529 25 254 14.5 33.8 0.00 0.00 0.00 50 1002.6
20260504190028 25 184 11.3 33.8 0.00 0.00 0.00 49 1002.7
20260504184527 24 238 12.9 38.6 0.00 0.00 0.00 48 1002.7
20260504183026 25 178 11.3 32.2 0.00 0.00 0.00 47 1003.1
20260504181523 25 159 14.5 35.4 0.00 0.00 0.00 48 1003.4
20260504180021 25 246 11.3 29.0 0.00 0.00 0.00 48 1003.4
20260504174519 24 213 12.9 33.8 0.00 0.00 0.00 49 1003.5
20260504173021 25 256 6.4 19.3 0.00 0.00 0.00 50 1003.7
20260504171519 24 217 8.0 30.6 0.00 0.00 0.00 51 1003.9
20260504160108 19 165 0.0 6.4 0.00 0.00 0.00 68 1004.3
20260504081519 17 252 0.0 9.7 0.00 0.00 0.00 73 1006.4
20260504044609 14 266 0.0 0.0 0.00 0.00 0.00 85 1008.0
20260504043054 14 266 0.0 0.0 0.00 0.00 0.00 84 1008.1
20260504041553 15 266 0.0 0.0 0.00 0.00 0.00 83 1008.2
20260504040104 15 266 0.0 0.0 0.00 0.00 0.00 83 1008.3
20260504034551 15 266 0.0 0.0 0.00 0.00 0.00 82 1008.4
20260504033052 16 266 0.0 0.0 0.00 0.00 0.00 81 1008.6
20260504031550 16 266 0.0 1.6 0.00 0.00 0.00 80 1008.7
20260504030049 16 266 0.0 0.0 0.00 0.00 0.00 79 1008.8
20260504024549 16 266 0.0 0.0 0.00 0.00 0.00 73 1008.9
20260504023048 17 266 0.0 0.0 0.00 0.00 0.00 74 1008.6
20260504021549 18 266 0.0 0.0 0.00 0.00 0.00 71 1008.4
20260504020046 18 266 0.0 0.0 0.00 0.00 0.00 67 1008.5
20260504014546 20 266 0.0 0.0 0.00 0.00 0.00 64 1008.5
20260504013052 21 266 0.0 0.0 0.00 0.00 0.00 58 1008.4